Weather History for Billings, MT

Change the Weather History Date:

Sunday, November 25, 2012

  Actual Average Record
Temperature  
Mean Temperature 30 °F 32 °F  
Max Temperature 33 °F 40 °F 68 °F (1949)
Min Temperature 26 °F 23 °F -11 °F (1985)
Degree Days  
Heating Degree Days 35 34  
Month to date heating degree days 606 703  
Since 1 July heating degree days 1251 1455  
Cooling Degree Days 0 0  
Month to date cooling degree days 0 0  
Year to date cooling degree days 958 636  
Moisture  
Dew Point 29 °F    
Average Humidity 93    
Maximum Humidity 100    
Minimum Humidity 85    
Precipitation  
Precipitation 0.30 in 0.02 in 0.38 in (1976)
Month to date precipitation 0.62 0.54  
Year to date precipitation 6.84 13.07  
Snow  
Snow 3.20 in 0.20 in 3.80 in (1976)
Month to date snowfall 7.5 5.2  
Since 1 July snowfall 11.6 10.4  
Since 1 September snowfall 11.6 10.4  
Snow Depth 0.00 in    
Sea Level Pressure  
Sea Level Pressure 30.08 in    
Wind  
Wind Speed 5 mph (NNE)    
Max Wind Speed 16 mph    
Max Gust Speed 20 mph    
Visibility 2 miles    
Events Fog , Snow    
T = Trace of Precipitation, MM = Missing Value Source: NWS Daily Summary

Daily Weather History Graph

Daily Weather History Graph

Search for Another Location

Airport:

Trip Planner

Search our weather history database for the weather conditions in past years. The results will help you decide how hot, cold, wet, or windy it might be!

Date:

Astronomy

Nov. 25, 2012 Rise Set
Actual Time 7:28 AM MST 4:34 PM MST
Civil Twilight 6:54 AM MST 5:07 PM MST
Nautical Twilight 6:18 AM MST 5:44 PM MST
Astronomical Twilight 5:42 AM MST 6:19 PM MST
Moon 2:57 PM MST (11/25) 4:39 AM MST (11/25)
Length of Visible Light 10h 12m
Length of Day
9h 05m
Waxing Gibbous, 93% of the Moon is Illuminated
Nov 25
Waxing Gibbous
Nov 28
Full
Dec 6
Last Quarter
Dec 13
New
Dec 19
First Quarter

Hourly Weather History & Observations

Time (MST) Temp. Windchill Dew Point Humidity Pressure Visibility Wind Dir Wind Speed Gust Speed Precip Events Conditions
12:53 AM 32.0 °F 27.5 °F 28.9 °F 88% 30.01 in 10.0 mi North 4.6 mph - N/A   Scattered Clouds
1:53 AM 32.0 °F 27.5 °F 28.9 °F 88% 30.00 in 10.0 mi North 4.6 mph - N/A   Clear
2:53 AM 30.9 °F 24.3 °F 28.9 °F 92% 30.00 in 10.0 mi North 6.9 mph - N/A   Partly Cloudy
3:53 AM 30.9 °F 25.2 °F 28.9 °F 92% 29.98 in 10.0 mi North 5.8 mph - N/A   Overcast
4:53 AM 30.9 °F 27.5 °F 30.0 °F 96% 29.99 in 10.0 mi NNE 3.5 mph - N/A   Overcast
5:53 AM 32.0 °F - 30.0 °F 92% 30.00 in 9.0 mi Calm Calm - 0.00 in Snow Light Snow
6:53 AM 32.0 °F 27.5 °F 30.0 °F 92% 30.02 in 2.5 mi North 4.6 mph - 0.02 in Snow Light Snow
7:05 AM 32.0 °F 27.5 °F 30.2 °F 93% 29.96 in 4.0 mi NNW 4.6 mph - 0.00 in Snow Light Snow
7:34 AM 32.0 °F 28.7 °F 30.2 °F 93% 29.95 in 1.0 mi NE 3.5 mph - 0.01 in Snow Light Snow
7:43 AM 30.2 °F 26.7 °F 30.2 °F 100% 29.95 in 0.5 mi ENE 3.5 mph - 0.02 in Fog , Snow Snow
7:53 AM 30.9 °F 27.5 °F 30.0 °F 96% 30.03 in 0.5 mi Variable 3.5 mph - 0.03 in Fog , Snow Snow
8:04 AM 32.0 °F - 30.2 °F 93% 29.97 in 1.0 mi Calm Calm - 0.00 in Snow Light Snow
8:24 AM 32.0 °F 28.7 °F 30.2 °F 93% 29.97 in 1.0 mi NNE 3.5 mph - 0.00 in Snow Light Snow
8:35 AM 32.0 °F 28.7 °F 30.2 °F 93% 29.97 in 0.5 mi NNE 3.5 mph - 0.01 in Fog , Snow Snow
8:38 AM 32.0 °F - 30.2 °F 93% 29.97 in 0.2 mi Calm Calm - 0.01 in Fog , Snow Snow
8:53 AM 32.0 °F - 30.9 °F 96% 30.05 in 0.5 mi Calm Calm - 0.03 in Fog , Snow Snow
9:06 AM 32.0 °F - 30.2 °F 93% 29.98 in 0.2 mi Calm Calm - 0.02 in Fog , Snow Heavy Snow
9:16 AM 32.0 °F - 30.2 °F 93% 29.99 in 0.5 mi Calm Calm - 0.03 in Fog , Snow Snow
9:53 AM 32.0 °F 27.5 °F 30.9 °F 96% 30.07 in 0.5 mi NNE 4.6 mph - 0.05 in Fog , Snow Snow
10:18 AM 32.0 °F 26.4 °F 30.2 °F 93% 29.99 in 0.2 mi NNE 5.8 mph - 0.02 in Fog , Snow Snow
10:53 AM 32.0 °F 27.5 °F 30.9 °F 96% 30.08 in 0.2 mi NNE 4.6 mph - 0.03 in Fog , Snow Snow
11:39 AM 32.0 °F 26.4 °F 30.2 °F 93% 30.00 in 0.5 mi North 5.8 mph - 0.01 in Snow Light Snow
11:53 AM 32.0 °F 27.5 °F 30.9 °F 96% 30.08 in 0.5 mi North 4.6 mph - 0.01 in Snow Light Snow
12:35 PM 32.0 °F 26.4 °F 30.2 °F 93% 30.00 in 0.2 mi North 5.8 mph - 0.02 in Snow Light Snow
12:42 PM 32.0 °F 27.5 °F 30.2 °F 93% 30.00 in 0.5 mi North 4.6 mph - 0.02 in Snow Light Snow
12:53 PM 32.0 °F - 30.9 °F 96% 30.08 in 0.5 mi Calm Calm - 0.02 in Snow Light Snow
12:55 PM 32.0 °F - 30.2 °F 93% 29.99 in 1.0 mi Calm Calm - 0.00 in Snow Light Snow
1:12 PM 33.8 °F 30.8 °F 30.2 °F 87% 30.00 in 1.0 mi NNE 3.5 mph - 0.00 in Snow Light Snow
1:20 PM 33.8 °F 30.8 °F 30.2 °F 87% 29.99 in 8.0 mi East 3.5 mph - 0.00 in   Overcast
1:24 PM 33.8 °F 30.8 °F 30.2 °F 87% 29.99 in 1.0 mi East 3.5 mph - 0.00 in   Overcast
1:43 PM 33.8 °F 29.6 °F 30.2 °F 87% 30.00 in 0.5 mi NNE 4.6 mph - 0.00 in   Overcast
1:53 PM 33.1 °F 30.0 °F 32.0 °F 96% 30.08 in 0.5 mi ENE 3.5 mph - 0.00 in   Overcast
2:53 PM 32.0 °F 28.7 °F 32.0 °F 100% 30.09 in 0.5 mi SSW 3.5 mph - N/A Fog Fog
3:53 PM 33.1 °F - 32.0 °F 96% 30.12 in 0.5 mi Calm Calm - 0.00 in   Overcast
4:47 PM 33.8 °F - 32.0 °F 93% 30.04 in 2.0 mi Calm Calm - 0.00 in   Overcast
4:53 PM 33.1 °F - 32.0 °F 96% 30.13 in 2.0 mi Calm Calm - 0.00 in   Overcast
5:15 PM 32.0 °F 27.5 °F 30.2 °F 93% 30.06 in 1.0 mi NNE 4.6 mph - 0.00 in Snow Light Snow
5:21 PM 30.2 °F 21.9 °F 30.2 °F 100% 30.06 in 0.5 mi ENE 9.2 mph - 0.00 in Fog , Snow Light Snow
5:38 PM 30.2 °F 23.4 °F 30.2 °F 100% 30.06 in 0.5 mi ENE 6.9 mph - 0.00 in Snow Light Snow
5:53 PM 30.0 °F 21.7 °F 28.9 °F 96% 30.16 in 0.5 mi NE 9.2 mph - 0.00 in Snow Light Snow
6:53 PM 28.9 °F 18.2 °F 28.0 °F 96% 30.20 in 0.5 mi NNE 13.8 mph - 0.05 in Fog , Snow Snow
7:53 PM 28.0 °F 17.5 °F 26.1 °F 92% 30.25 in 0.5 mi NE 12.7 mph - 0.05 in Fog , Snow Snow
8:51 PM 26.6 °F 17.5 °F 24.8 °F 93% 30.17 in 1.0 mi NE 9.2 mph - 0.01 in Snow Snow
8:53 PM 26.1 °F 16.8 °F 25.0 °F 96% 30.28 in 3.0 mi NE 9.2 mph - 0.01 in Snow Light Snow
9:25 PM 26.6 °F 20.0 °F 26.6 °F 100% 30.19 in 1.0 mi NE 5.8 mph - 0.00 in Snow Light Snow
9:33 PM 26.6 °F 22.6 °F 26.6 °F 100% 30.20 in 0.5 mi NNE 3.5 mph - 0.00 in Fog , Snow Snow
9:53 PM 26.1 °F - 25.0 °F 96% 30.31 in 0.5 mi Calm Calm - 0.00 in Fog , Snow Snow
10:03 PM 26.6 °F - 24.8 °F 93% 30.21 in 1.0 mi Calm Calm - 0.00 in Snow Light Snow
10:46 PM 26.6 °F 22.6 °F 24.8 °F 93% 30.23 in 3.0 mi SW 3.5 mph - 0.00 in Snow Light Snow
10:53 PM 26.1 °F 21.9 °F 25.0 °F 96% 30.34 in 3.0 mi SW 3.5 mph - 0.00 in Snow Light Snow
11:53 PM 26.1 °F 20.5 °F 25.0 °F 96% 30.35 in 3.0 mi SSE 4.6 mph - 0.00 in   Overcast